Preview of NWS' New Version of Forecast
This preview is not operational and should not be used for support decisions.

Regional Weather Roundup (RWR)

Issued by National Weather Service (NWS)

                            
000
ASUS43 KLSX 211057
RWRMO 

WEATHER SUMMARY FOR MISSOURI
NATIONAL WEATHER SERVICE SPRINGFIELD MO
600 AM CDT SAT SEP 21 2019

NOTE: "FAIR" INDICATES FEW OR NO CLOUDS BELOW 12,000 FEET WITH NO
       SIGNIFICANT WEATHER AND/OR OBSTRUCTIONS TO VISIBILITY.
       CURRENT SKY AND/OR WEATHER CONDITIONS ARE NOT AVAILABLE FOR
       CHILLICOTHE AND FARMINGTON.

MOZ001>031-035>038-043-044-053-054-211200-
...NORTHERN AND WESTERN MISSOURI...
  
CITY           SKY/WX    TMP DP  RH WIND       PRES   REMARKS
KANSAS CTY INT MOCLDY    73  70  90 S14       29.95F                  
LEE'S SUMMIT   PTCLDY    73  68  84 S14G24    29.99S                  
ST JOSEPH      TSTM      73  69  87 S13       29.93S FOG              
CHILLICOTHE      N/A     72  71  97 S6        29.99S                  
KIRKSVILLE     CLOUDY    73  68  83 S9        30.02S                  
     
$$
MOZ066>068-077>081-088>096-101>105-211200-
...SOUTHWEST MISSOURI...
  
CITY           SKY/WX    TMP DP  RH WIND       PRES   REMARKS
SPRINGFIELD    CLEAR     72  67  84 S14       30.07R                  
JOPLIN         CLOUDY    75  69  81 S16G24    30.04R                  
               
$$
MOZ032>034-039>042-045>050-055>058-069>072-211200-
...CENTRAL MISSOURI...  
  
CITY           SKY/WX    TMP DP  RH WIND       PRES   REMARKS
COLUMBIA       NOT AVBL                                               
JEFFERSON CITY CLOUDY    77  68  73 S8        30.07S                  
ROLLA          MOCLDY    73  65  75 S8G20     30.12R                  
SEDALIA        CLOUDY    71  68  90 S13       30.04S                  
WARRENSBURG    CLOUDY    72  68  88 SE10      30.00F                  
               
$$
MOZ051-052-059>065-211200-
...EAST CENTRAL MISSOURI...
  
CITY           SKY/WX    TMP DP  RH WIND       PRES   REMARKS
ST LOUIS INTL  CLOUDY    74  68  81 S10       30.12S                  
                   
$$
MOZ072>076-082>087-097>100-106>115-211200-
...SOUTH CENTRAL AND SOUTHEAST MISSOURI...
  
CITY           SKY/WX    TMP DP  RH WIND       PRES   REMARKS
CAPE GIRARDEAU MOCLDY    70  65  84 S6        30.17R                  
POPLAR BLUFF   FAIR      71  65  81 S5        30.16R                  
WEST PLAINS    CLOUDY    70  68  93 S8        30.16R                  
                                       
$$